カタログに戻る

STARLINK-1403

運用中通信VLEO
NORAD 45701·PAYLOAD·🇺🇸 United States

打ち上げ Jun 4, 2020 から Cape Canaveral Space Force Station

Loading…

次のパス (今後24時間)

TLE

最新Source: CelesTrak SupGP

元期: Sep 14, 2026, 19:35 UTC

1 45701C 20035AW  26257.81645833  .00077226  00000+0  17713-2 0  2578
2 45701  53.1508 232.0376 0002957  69.1345  48.7893 15.42112678    12

AllMySatでSTARLINK-1403をリアルタイム追跡

Download on the App Store